Wind_Gust
11 16 17 20 15 11 9 11 12 13 8 7 7 9 15 14 12 5 9 9 12 12 14 22 21 22 15 15 15 16 21 25 27 27 22 19 19 18 19 19 19 17 13 11 17 17 17 15 12 12 13 13 15 13 12 13 12 12 10 11 11 8 9 8 11 11 6 6 10 12 10 9 11 11 7 9 7 8 9 8 5 6 6 4 5 5
12 13 17 8 11 12 12 9 8 11 11 10 5 4 8 11 16 12 12 14 14 17 11 24 22 16 17 16 18 15 23 21 20 20 20 20 18 18 18 18 18 15 10 14 16 15 15 13 12 15 14 15 17 12 12 13 10 11 13 13 11 12 12 11 8 4 3 2 9 10 12 10 9 11 13 11 4 7 7 9 5 5 5 6 6 6
19 20 10 12 10 10 8 8 11 13 14 10 9 12 7 12 10 7 10 12 14 30 13 29 27 20 17 16 14 11 17 19 18 19 19 20 18 17 16 17 16 15 14 18 13 14 14 12 13 17 14 14 11 9 13 9 12 13 12 11 10 12 11 10 10 9 7 3 2 9 13 14 10 12 13 12 13 12 5 7 7 7 7 5 5 6
14 15 12 10 9 8 9 11 11 14 13 10 8 8 18 7 5 10 11 14 13 27 21 29 28 18 15 16 18 13 16 20 18 19 18 16 19 18 17 14 15 15 17 16 11 14 12 15 14 14 14 12 11 11 13 12 11 11 12 11 12 12 10 11 10 9 7 6 6 5 7 14 15 10 11 13 14 13 13 15 6 7 7 5 5 6
12 4 13 11 9 13 15 15 13 12 15 9 12 15 18 7 9 10 11 18 24 22 29 31 26 14 9 15 16 13 15 21 18 19 18 17 16 15 14 13 13 15 15 15 14 12 12 16 13 13 11 11 12 12 12 11 11 10 10 12 11 11 10 9 10 10 8 10 12 12 11 11 11 14 9 9 11 10 12 15 11 12 8 5 3 4
12 9 12 10 12 13 15 18 21 13 11 12 10 18 17 8 7 4 11 19 23 15 21 35 18 10 8 9 14 14 15 16 14 18 17 16 14 14 16 13 13 15 13 14 14 13 12 13 11 11 11 13 11 12 9 8 12 8 11 12 9 9 10 12 10 10 11 10 11 13 15 14 12 13 6 9 12 13 13 14 12 13 11 9 7 7
13 10 16 20 17 16 18 20 17 11 14 10 19 13 16 12 6 8 15 23 25 31 26 13 27 18 10 14 13 12 16 13 13 16 16 15 14 14 15 14 15 15 14 13 13 11 14 11 12 12 12 10 11 9 6 8 9 8 9 10 8 8 9 10 8 10 11 12 11 11 11 9 10 9 10 6 4 8 13 16 13 11 13 10 11 12
17 14 17 19 21 21 17 22 22 14 12 23 8 9 8 8 9 14 12 25 25 11 25 6 22 27 18 19 17 15 18 17 15 14 14 15 15 15 14 15 13 13 12 15 13 12 12 13 12 11 9 9 9 7 7 8 8 9 9 6 9 10 11 10 9 11 12 11 10 12 11 11 11 10 9 10 9 7 7 14 15 11 11 12 8 11
16 16 18 21 19 23 24 20 11 14 22 20 5 10 7 7 11 16 14 12 10 24 18 7 14 22 15 17 15 17 22 18 19 17 15 17 16 17 18 17 16 13 12 13 14 13 12 14 11 8 9 7 7 6 7 6 7 9 7 8 9 11 10 10 11 11 11 12 11 12 12 11 10 9 9 8 9 10 10 9 6 9 13 15 15 11
22 18 17 21 23 24 17 16 16 14 18 17 8 6 4 3 8 10 9 14 9 23 23 15 18 23 10 16 22 17 16 21 19 16 15 18 20 19 20 16 15 13 12 13 14 13 13 13 12 10 9 9 6 5 6 8 10 10 8 9 9 9 9 9 9 10 11 11 11 13 12 11 10 10 10 10 13 12 11 11 11 10 4 5 11 17
15 18 15 22 27 22 17 16 17 14 18 6 9 13 9 7 5 5 5 12 17 22 25 21 19 20 21 24 33 32 31 32 22 14 12 13 13 17 19 17 16 14 13 13 13 13 12 11 13 11 10 8 7 7 9 11 10 8 8 9 11 9 9 8 9 9 10 9 10 10 10 10 11 12 13 14 14 14 13 15 13 11 11 10 11 10
15 11 20 19 15 22 14 21 14 13 12 11 18 12 7 10 6 8 6 10 24 22 11 15 15 13 22 19 23 15 12 26 32 27 24 20 17 16 15 15 17 15 13 12 11 12 12 10 11 11 10 10 9 10 11 9 8 8 8 9 10 9 8 9 9 9 11 11 12 10 9 11 13 12 13 13 14 15 13 13 12 10 10 12 10 10
19 19 10 12 17 22 22 14 15 12 9 14 12 5 14 10 12 16 10 12 14 21 9 11 12 7 7 7 8 11 19 17 10 23 25 22 18 15 14 13 14 14 13 12 11 10 9 10 11 11 12 12 10 6 6 7 6 8 9 8 9 9 9 10 9 11 11 11 11 12 12 9 9 10 10 11 12 12 12 12 11 12 12 12 13 13
17 7 10 16 10 23 21 24 14 16 13 11 19 12 14 15 14 13 9 9 6 10 6 18 7 16 7 6 5 17 14 17 16 16 18 18 18 16 17 15 14 13 10 11 10 9 8 9 8 11 13 10 6 5 7 8 10 9 8 7 8 8 8 10 10 10 13 13 13 13 12 11 9 8 8 9 12 12 12 12 12 12 12 12 12 13
15 22 25 16 19 15 26 25 19 13 10 20 9 18 17 18 22 14 13 17 15 14 8 13 26 18 8 7 4 11 17 17 17 17 14 13 14 16 17 16 14 12 9 10 9 10 11 9 10 12 13 8 4 5 6 7 8 9 8 8 8 9 8 10 11 12 13 13 14 14 12 10 10 10 10 9 10 12 12 12 12 13 15 15 15 15
22 19 13 14 8 16 18 14 15 12 8 13 12 13 12 18 16 8 17 14 11 11 11 13 12 8 10 6 12 16 20 19 17 16 15 15 16 17 17 14 12 10 9 7 8 8 9 9 9 11 7 5 4 6 8 8 7 8 6 6 7 8 8 10 12 11 11 10 11 11 11 12 12 12 11 11 10 10 10 11 13 15 16 16 16 15
11 22 5 13 11 14 17 14 16 16 26 16 13 23 17 11 12 8 4 2 11 17 8 9 12 14 13 11 13 16 20 19 17 16 17 16 14 15 14 11 9 9 9 7 7 6 8 7 8 7 6 7 9 9 8 6 6 6 7 8 9 9 10 11 11 10 9 10 10 11 11 11 12 12 11 12 11 11 9 9 12 14 15 15 16 16
18 12 9 12 18 15 15 17 9 14 15 15 28 12 5 8 12 17 14 8 9 18 13 5 13 15 16 17 12 17 20 18 19 17 16 15 14 15 10 9 9 9 8 6 6 6 7 7 7 9 11 11 10 10 11 9 7 8 8 8 9 10 13 12 13 12 10 11 12 13 14 13 11 10 11 11 12 12 11 13 15 14 15 15 16 17
9 11 14 9 13 15 5 10 11 6 5 16 15 10 20 14 15 8 15 11 11 13 12 8 12 16 15 17 22 23 25 23 22 18 17 16 15 13 10 10 10 9 10 8 7 9 9 10 11 12 12 11 10 9 8 9 10 11 9 9 10 11 11 12 12 11 12 11 12 12 13 12 12 12 13 12 13 12 13 16 17 17 16 15 16 17
8 13 13 7 15 8 11 18 21 17 4 3 6 8 4 12 10 13 24 13 20 11 12 11 16 16 16 22 28 27 23 22 22 18 16 15 14 13 11 9 11 9 10 8 9 11 12 11 11 11 12 12 10 9 9 9 10 10 10 12 12 12 12 12 12 12 12 13 14 14 13 12 12 12 13 13 13 14 13 16 17 18 15 18 18 17
10 7 10 14 9 13 19 23 19 16 15 9 8 10 7 10 7 13 9 15 14 20 16 19 20 17 9 19 23 24 23 23 23 21 18 17 14 12 10 9 9 8 8 10 10 12 12 12 12 11 9 10 9 9 9 9 8 7 10 11 11 12 10 10 11 12 12 13 13 13 11 11 11 12 12 12 13 12 11 13 16 16 13 13 16 17
12 10 16 8 12 20 10 10 12 17 14 13 17 15 12 6 9 10 17 8 13 20 21 19 20 11 7 6 23 21 20 19 16 20 19 16 14 12 12 10 8 9 9 10 12 11 11 11 11 11 11 9 10 10 10 8 8 9 9 11 11 10 8 9 11 12 12 10 12 11 11 10 9 10 10 9 10 11 10 12 14 12 12 12 13 15
14 11 12 9 14 14 8 11 11 14 12 12 16 13 12 10 12 14 16 13 9 7 12 10 15 9 3 3 10 19 19 18 19 20 19 16 15 14 12 11 12 12 12 11 11 11 9 8 8 10 11 9 8 7 7 7 8 8 9 12 10 12 8 8 10 10 10 11 12 12 13 13 13 11 9 9 8 10 9 9 10 11 11 12 12 13
5 14 13 9 6 5 6 11 13 12 11 7 9 6 10 9 10 15 13 13 14 8 9 6 11 9 4 6 20 22 18 18 17 18 20 17 16 15 14 15 15 15 14 13 12 12 10 8 7 11 10 11 10 8 7 7 7 8 9 9 10 11 8 9 10 11 11 11 13 12 13 15 15 15 14 14 14 14 12 9 8 9 11 11 12 14
28 12 15 10 11 6 3 5 14 6 14 14 12 8 7 6 4 7 7 5 12 13 14 19 17 10 4 10 23 24 22 21 20 18 23 22 16 17 17 15 15 15 15 15 13 12 11 11 10 9 8 8 9 8 8 8 7 8 8 8 10 9 8 9 10 11 10 11 12 13 14 14 15 16 16 16 16 16 15 15 14 12 11 11 12 12
16 9 14 16 19 19 25 25 23 15 15 9 7 8 6 10 4 5 10 8 13 4 9 15 11 5 9 16 23 25 23 20 20 20 16 21 20 21 18 16 16 15 15 13 11 11 11 8 8 9 7 9 7 7 7 8 9 8 9 9 7 9 9 9 9 9 9 9 12 13 13 12 12 14 14 14 14 15 16 17 17 16 15 14 13 12
20 9 8 14 17 16 11 9 8 9 9 18 6 8 7 5 8 9 11 10 18 10 8 5 26 24 19 22 26 26 27 27 22 19 22 20 18 20 18 17 16 15 15 12 10 9 8 9 9 7 7 6 6 6 7 9 10 9 10 12 11 10 10 9 9 9 10 10 10 11 11 11 11 10 11 12 11 12 14 15 16 17 17 17 16 16
10 14 5 13 9 13 10 5 8 10 5 6 7 8 8 7 8 8 10 16 16 20 6 7 24 34 24 24 26 27 25 25 24 23 21 22 23 21 19 17 14 14 11 11 10 10 8 7 7 7 7 7 6 6 8 8 9 10 11 13 13 14 14 13 12 11 12 12 14 12 10 9 8 8 9 8 8 8 10 11 14 15 15 15 18 19
16 14 4 7 5 12 6 11 13 16 12 12 13 9 6 10 11 9 10 10 18 19 19 22 22 30 29 28 27 27 28 28 27 25 22 22 23 21 20 18 16 14 12 12 9 7 7 8 9 10 7 5 6 8 8 10 10 10 11 11 12 13 12 12 13 14 14 14 14 13 12 10 8 7 8 9 8 8 8 8 9 12 14 15 16 16
19 6 4 9 9 11 10 12 15 21 11 17 16 13 9 3 6 10 8 5 4 4 23 34 19 15 20 20 21 23 21 24 23 21 22 22 24 23 21 18 16 15 13 11 8 6 5 5 6 6 7 5 6 7 9 9 9 9 10 11 11 13 12 15 15 16 16 16 13 13 13 13 11 10 8 8 10 10 9 8 7 10 12 13 13 13
19 12 6 9 9 8 8 14 19 18 16 14 12 15 15 15 17 12 14 20 30 25 24 28 26 21 9 17 18 17 19 20 22 23 23 23 23 23 22 19 17 15 12 10 8 6 7 9 12 12 9 6 6 7 8 8 8 9 10 10 11 12 12 13 14 15 15 16 15 13 12 13 13 13 13 12 12 10 10 10 8 8 10 11 12 13
13 8 6 11 13 5 8 11 15 20 20 17 11 15 18 12 15 5 17 8 21 22 25 23 24 21 16 20 20 19 21 24 25 24 23 21 21 22 22 20 18 15 14 11 9 8 9 9 11 10 8 6 7 7 9 10 9 10 9 9 11 11 11 13 14 15 15 15 16 15 14 13 14 14 13 13 14 14 13 11 10 9 9 11 12 14
15 16 11 11 16 5 7 2 6 9 11 9 9 9 9 6 7 11 9 8 21 39 29 27 27 28 31 29 28 23 24 23 24 25 23 21 22 22 22 21 18 15 13 12 10 9 10 10 9 9 7 6 8 9 8 10 10 10 9 11 10 12 12 12 12 12 13 13 13 13 13 13 15 14 15 14 14 14 15 15 13 10 10 13 12 11
7 17 10 7 18 8 7 4 5 10 7 11 7 7 8 7 7 20 11 14 9 12 16 14 29 25 26 28 32 31 29 28 25 16 21 31 28 22 20 18 17 15 13 11 11 11 9 9 9 8 7 7 6 7 7 9 10 8 9 13 12 13 11 12 10 11 11 10 10 11 11 12 14 15 15 14 14 14 16 17 17 13 8 9 13 14
13 14 7 8 18 10 3 6 13 10 13 3 7 8 7 11 14 24 15 12 8 9 20 28 27 28 24 20 24 22 18 15 14 21 17 17 21 24 24 21 20 17 14 13 11 10 9 10 9 9 9 8 8 8 10 10 9 9 10 12 13 12 13 10 9 8 7 9 10 10 10 11 12 14 14 14 14 15 16 16 15 16 13 10 12 14
14 19 12 12 9 9 8 8 19 12 5 4 6 6 9 10 8 26 18 12 10 4 22 25 25 25 22 22 19 19 21 20 19 14 18 18 19 23 23 20 19 18 16 13 13 10 11 11 11 11 8 7 10 9 9 9 9 11 8 8 11 11 11 10 8 7 6 8 8 9 9 10 11 12 11 13 14 15 16 15 15 14 13 13 10 9
18 12 17 13 8 15 8 8 8 4 4 6 8 9 13 11 8 9 19 7 5 3 16 27 22 21 22 20 22 23 22 23 21 14 12 17 18 19 22 20 19 17 14 11 11 11 10 10 10 9 9 9 9 10 8 7 10 10 10 10 10 11 10 10 8 7 7 8 8 9 9 9 10 9 9 9 12 13 12 12 12 11 10 11 11 11
6 18 9 18 7 11 14 10 10 6 17 16 12 6 6 4 11 5 15 5 4 5 7 27 28 25 23 21 23 25 25 30 22 15 8 17 21 20 19 18 17 16 12 11 7 8 8 7 8 9 14 12 10 8 8 8 10 11 10 8 7 10 9 9 7 6 7 8 8 10 10 9 9 9 8 8 9 8 8 8 8 10 10 11 11 13
18 16 11 18 14 9 8 16 18 19 20 11 19 9 4 10 15 7 14 12 12 11 9 20 27 27 31 32 27 26 28 29 22 18 16 22 22 21 21 18 19 15 12 11 12 12 10 10 11 10 11 11 11 9 8 8 10 11 9 8 7 7 7 7 8 7 7 7 7 9 10 9 9 9 8 8 6 6 6 7 8 8 9 11 10 11
19 10 11 15 10 9 12 12 12 17 16 7 13 10 11 9 6 5 11 21 23 21 18 20 26 26 23 27 31 31 36 35 31 24 20 24 22 21 22 20 17 14 11 9 9 11 12 12 14 12 11 11 8 7 9 7 9 8 9 7 7 8 7 7 8 6 6 7 9 9 10 8 9 7 8 7 7 7 7 5 6 9 10 11 11 12
10 8 11 13 10 9 10 7 7 12 11 5 11 9 9 8 9 10 23 11 24 27 26 25 25 24 25 26 25 31 7 8 20 22 21 23 23 19 18 17 15 12 12 11 11 10 13 14 14 13 11 9 9 9 8 8 9 9 8 8 9 7 5 5 6 7 5 8 10 10 9 7 8 9 6 6 7 6 8 8 8 8 8 10 11 11
6 7 6 10 10 11 6 12 12 10 12 8 9 12 10 11 15 19 11 11 30 25 24 25 25 22 21 19 13 10 18 26 21 20 21 22 23 21 19 17 14 12 9 9 11 12 12 13 12 11 9 8 12 10 8 8 9 7 8 9 8 5 6 8 8 7 5 7 8 8 8 7 5 7 8 7 8 10 10 9 10 9 7 9 9 11
15 16 9 10 11 8 7 9 6 10 11 14 14 7 6 14 12 9 13 12 20 26 25 21 23 20 20 17 14 19 26 25 23 21 20 22 23 20 17 15 13 12 12 12 13 13 15 13 13 13 9 8 9 8 7 9 8 7 7 9 6 7 9 9 8 8 8 7 8 7 7 6 6 6 7 8 8 9 9 7 9 9 8 8 8 11
6 16 11 12 10 17 12 19 20 14 11 11 19 19 16 9 12 16 23 20 14 22 22 23 20 20 18 20 23 25 26 24 20 20 21 20 19 15 15 15 13 13 13 13 16 15 14 14 12 11 7 7 7 7 7 10 7 7 7 6 3 7 8 10 9 9 8 6 5 6 6 6 5 5 5 8 9 8 8 8 8 8 9 8 9 11
7 9 15 17 7 12 16 10 7 3 4 4 7 6 6 9 15 14 19 29 28 19 16 21 22 20 18 22 23 24 25 21 20 19 22 20 20 18 18 18 16 15 14 15 16 16 15 16 13 12 9 7 6 5 6 7 9 6 4 2 2 8 8 7 8 9 9 8 5 6 4 5 6 5 5 5 8 8 7 6 6 11 8 8 10 11
3 5 4 18 9 8 12 4 3 8 11 12 10 14 20 12 8 15 20 21 10 18 18 22 19 20 19 21 28 22 22 19 22 20 19 21 19 17 16 17 15 11 12 13 13 15 14 13 12 12 10 6 6 5 7 8 11 10 5 5 6 4 6 8 10 10 8 7 6 3 5 7 6 6 6 6 7 7 6 7 7 8 8 9 9 9
3 3 5 18 10 8 9 3 10 8 8 14 16 10 11 11 15 15 15 17 18 18 18 16 18 19 19 22 24 22 21 21 21 21 21 21 20 18 19 16 12 13 15 16 15 14 14 12 13 11 9 8 4 7 8 8 8 8 8 11 10 10 9 9 8 8 8 9 7 4 3 7 6 5 6 6 8 8 7 6 6 6 6 6 9 9
4 4 16 6 8 9 13 6 7 7 9 10 17 18 15 14 13 9 15 15 17 16 16 17 18 19 20 20 22 24 21 19 23 22 21 20 18 18 16 14 14 15 15 15 14 15 13 13 12 11 9 9 6 6 7 7 8 8 9 8 9 10 10 9 8 9 8 7 6 6 3 2 5 7 8 5 6 9 8 5 3 7 6 8 7 10
9 6 11 7 14 14 13 8 12 12 11 8 8 8 13 15 18 16 17 18 18 19 18 15 15 18 19 20 19 24 24 19 20 22 21 19 16 14 14 15 16 14 14 14 13 15 15 11 11 9 9 8 7 9 7 6 4 6 8 6 7 9 10 8 7 8 8 7 10 9 4 1 4 7 9 6 6 5 3 7 6 5 2 2 1 3
13 9 12 19 20 19 20 23 24 26 14 9 7 14 14 14 18 20 20 22 22 21 21 20 16 14 17 19 20 22 25 22 18 18 18 15 14 13 16 17 15 16 14 13 14 14 13 12 11 9 8 5 7 9 9 9 7 6 6 6 7 9 10 8 9 9 8 7 9 7 7 5 2 5 8 7 8 7 5 4 2 3 7 3 2 3
12 17 16 20 22 21 10 13 3 11 14 10 16 14 17 17 20 21 22 22 21 20 19 20 20 18 18 17 17 20 19 23 21 17 15 13 14 16 19 19 19 17 16 15 16 13 13 11 10 9 7 6 7 8 8 7 7 7 7 7 6 9 8 7 10 9 7 8 8 5 3 3 3 5 5 7 8 5 7 3 4 6 3 3 4 6
Wind_Speed
4 7 8 10 8 7 6 8 8 7 4 3 2 2 7 7 4 2 3 5 5 5 8 12 9 12 9 10 9 9 10 14 17 15 12 11 11 11 10 11 11 10 8 8 11 9 9 8 7 7 8 8 9 7 7 8 8 8 6 7 7 5 4 4 3 1 3 3 1 4 5 4 2 4 4 3 4 4 4 3 3 4 4 3 3 3
6 7 9 6 7 8 8 6 6 5 4 3 3 2 4 3 8 5 5 5 3 9 1 13 13 9 11 10 10 8 12 12 12 12 13 13 12 11 12 11 11 8 6 10 10 9 9 7 7 9 8 9 11 7 8 9 7 7 9 8 7 6 7 6 4 2 1 1 5 2 5 6 4 2 3 4 1 3 4 3 3 3 3 4 3 3
9 10 5 8 7 7 6 6 6 7 7 3 3 5 4 6 2 4 4 1 6 16 4 14 16 11 9 9 8 6 7 10 9 11 11 12 11 10 9 11 10 8 9 11 8 9 7 7 8 10 8 9 7 5 8 6 8 9 8 7 6 7 7 6 5 5 4 2 0 4 3 4 5 5 4 4 5 0 1 3 4 3 4 3 3 3
6 8 8 7 6 5 4 4 5 5 4 4 4 4 8 2 2 4 6 3 8 8 11 15 15 9 9 9 10 8 7 9 11 11 11 10 10 10 9 8 9 9 10 10 7 9 5 7 8 9 9 6 6 5 8 7 7 6 6 6 7 7 6 6 6 5 4 3 3 3 5 5 4 5 6 6 5 7 7 5 2 4 3 1 2 4
3 1 9 7 6 7 6 7 6 5 6 4 7 8 5 3 3 4 3 9 14 12 17 16 12 4 3 6 6 7 8 11 10 12 11 10 10 8 8 8 8 9 10 9 9 8 6 10 8 8 7 6 7 7 7 6 6 5 6 6 7 7 6 5 6 6 4 5 7 5 6 5 3 3 5 5 6 4 4 6 7 6 2 2 1 2
7 5 6 6 5 5 6 8 11 6 7 4 6 12 8 4 4 3 2 12 4 4 8 21 5 2 2 5 7 7 6 9 8 11 10 10 9 9 10 8 8 8 7 9 9 8 8 9 6 7 7 8 7 7 5 3 7 5 6 7 6 5 5 6 7 5 6 6 6 7 7 7 5 3 1 5 7 7 6 5 5 8 6 4 4 4
5 4 9 10 8 8 9 9 9 7 7 4 7 7 7 5 4 5 3 10 8 10 13 4 13 3 2 6 6 6 9 8 8 10 10 9 8 8 8 7 8 9 7 7 8 7 9 8 8 7 7 7 6 5 4 5 6 5 5 6 5 5 5 6 5 5 6 7 6 7 6 5 5 4 5 2 0 4 7 6 6 6 7 6 7 7
6 8 8 9 10 10 9 10 10 8 7 7 4 3 5 5 7 8 7 14 10 3 12 2 2 10 5 8 8 7 8 9 9 9 9 9 9 9 9 8 8 8 7 8 8 7 8 8 8 7 6 6 5 4 5 5 5 6 6 4 4 3 5 5 4 7 7 6 6 6 7 6 6 5 4 5 4 2 1 4 8 6 5 5 5 6
10 7 11 12 10 10 11 10 7 9 7 6 4 6 4 5 7 10 8 7 4 11 8 2 6 7 3 6 9 8 10 7 8 10 9 11 10 11 11 10 9 8 7 8 8 8 8 9 7 6 6 5 4 4 4 3 4 5 5 5 5 7 7 6 6 7 7 6 6 6 5 6 4 4 4 4 5 5 5 4 1 5 7 8 8 5
6 9 11 13 10 11 9 10 10 9 7 10 4 2 3 2 4 6 5 8 4 6 11 8 9 7 3 8 11 10 9 13 9 9 9 12 13 12 12 11 9 8 7 7 9 9 8 8 8 7 6 5 3 3 4 6 6 6 5 6 6 6 4 4 6 6 7 6 6 7 7 7 5 4 3 3 6 6 5 6 5 3 3 3 7 10
5 8 9 8 10 9 10 10 9 9 12 1 3 5 2 2 3 2 2 4 7 8 11 15 13 9 6 11 14 14 13 17 12 7 5 7 8 11 12 11 9 8 8 7 8 8 8 7 8 7 7 4 4 4 6 7 6 5 5 6 7 6 5 5 6 6 6 6 6 5 6 7 7 7 7 7 7 6 6 7 6 6 5 5 6 6
6 5 7 4 8 8 9 9 7 8 8 7 4 3 3 4 3 3 2 2 6 7 5 6 6 6 8 8 11 7 4 15 19 17 15 13 11 10 10 9 10 9 8 7 7 8 8 7 6 7 6 5 6 6 7 6 5 5 5 6 7 6 6 6 6 6 7 7 7 6 6 7 8 8 7 8 8 8 7 7 6 5 5 6 5 5
9 9 2 6 9 14 8 7 8 6 5 7 4 3 7 1 1 3 2 2 4 7 2 6 5 1 1 1 4 8 5 11 5 10 14 14 11 9 9 9 8 8 8 7 7 6 5 5 6 7 8 8 7 4 4 4 4 5 6 6 6 6 6 7 6 7 7 7 7 7 8 6 5 6 6 6 7 6 6 6 6 6 6 6 6 6
7 3 5 6 5 10 10 10 5 7 7 6 8 5 6 3 4 4 1 1 1 4 2 10 5 3 1 1 2 10 8 10 10 9 10 11 11 10 10 9 7 7 6 6 6 5 5 5 5 6 8 6 4 4 5 5 6 5 5 5 5 5 5 5 6 7 8 9 8 8 7 6 5 5 5 5 6 6 5 5 6 6 6 6 7 7
6 9 11 8 5 7 12 11 10 6 6 9 4 9 8 7 4 2 2 4 6 5 3 8 7 4 3 2 2 6 11 11 11 10 8 8 9 10 11 10 8 6 5 5 6 6 7 6 5 6 8 5 3 4 4 4 5 5 5 5 6 6 5 7 7 7 9 8 8 7 6 6 6 6 6 6 5 6 6 6 6 7 7 7 7 8
14 5 6 8 5 8 10 7 8 6 4 4 4 7 5 7 6 2 5 6 3 4 4 6 1 3 2 2 6 7 12 12 11 10 9 10 10 11 10 9 7 5 4 3 5 5 6 5 6 6 4 3 3 4 5 5 4 4 4 4 5 5 5 7 8 7 7 6 6 6 7 7 7 7 6 6 6 6 6 6 7 8 8 8 8 8
3 6 2 4 8 6 11 7 6 8 7 4 5 7 7 6 6 3 1 1 4 8 0 2 5 5 4 6 7 9 12 12 11 10 10 11 10 10 8 7 6 5 4 4 4 4 4 5 5 4 4 5 6 6 5 4 4 4 5 5 6 6 6 7 7 7 5 6 7 7 7 7 7 7 7 7 7 7 6 5 7 7 7 7 8 8
7 3 5 4 11 8 7 12 6 8 6 4 7 6 2 3 5 6 4 1 1 6 2 2 6 7 7 4 5 11 11 11 11 11 11 10 10 10 6 6 6 5 5 4 4 3 4 4 5 6 7 7 6 6 6 6 5 5 5 6 6 6 8 8 8 7 6 7 8 8 8 8 6 6 7 7 7 7 6 8 8 8 8 9 8 8
3 1 5 5 8 8 1 5 4 2 2 9 8 6 6 3 6 3 5 2 1 1 2 2 8 7 7 7 11 14 15 14 13 12 11 10 9 9 6 6 5 6 6 5 5 5 5 6 7 7 8 7 6 5 5 5 6 7 6 6 7 7 7 7 7 6 7 7 6 6 7 7 7 7 8 7 7 7 8 9 9 9 8 8 8 8
1 3 2 3 6 2 3 6 7 6 2 1 4 1 1 5 3 3 5 5 7 4 4 2 7 4 5 8 18 17 15 15 14 12 11 10 9 8 7 6 6 6 6 5 6 7 7 7 7 7 8 8 7 6 5 6 6 7 7 8 7 7 8 8 8 7 7 7 7 7 7 7 7 7 7 7 6 7 8 9 9 8 8 9 8 9
4 2 2 3 2 5 5 5 9 8 7 2 2 1 1 0 2 5 1 5 5 7 4 6 6 5 3 10 14 16 15 15 15 13 11 10 9 8 6 6 6 5 5 6 7 7 7 7 8 7 6 6 6 5 6 6 5 4 6 7 7 8 7 7 6 6 6 6 6 7 7 7 6 7 6 6 6 6 6 7 7 7 6 7 9 9
1 1 6 2 2 7 4 4 8 9 8 6 7 6 6 3 3 5 6 2 4 7 5 5 5 3 3 1 13 12 12 12 10 13 11 11 9 8 7 6 5 6 6 7 8 7 7 7 7 7 6 5 6 6 6 5 5 6 6 7 7 6 5 6 6 6 5 5 6 7 7 6 5 5 5 5 5 5 5 5 6 5 6 7 8 9
5 2 3 3 5 7 4 4 6 9 6 7 9 5 7 4 5 3 4 4 4 2 5 4 4 3 2 1 6 11 11 10 11 12 12 10 10 9 8 7 8 8 8 7 7 7 6 5 5 7 7 6 5 5 5 5 5 5 6 7 6 6 5 5 5 5 5 6 7 8 8 8 7 6 5 6 5 5 4 4 5 5 6 7 7 7
2 1 3 3 3 3 3 4 5 6 6 3 2 3 5 3 5 6 4 5 6 4 4 0 2 1 2 2 12 13 11 11 10 11 13 10 9 9 10 10 10 10 9 9 7 7 6 5 5 7 7 7 6 6 5 4 4 5 6 6 6 6 5 6 5 5 6 7 8 8 8 8 8 9 8 8 8 9 8 6 4 5 6 6 6 7
5 2 6 3 1 1 1 2 2 1 4 3 3 2 3 4 3 3 2 0 4 6 8 8 6 3 1 6 13 15 13 13 12 11 14 13 9 10 10 9 9 10 10 10 8 8 7 7 7 6 5 5 5 5 5 5 5 5 5 5 5 5 5 5 4 5 5 7 7 7 7 8 8 9 9 9 8 9 9 9 8 7 6 6 6 6
5 3 5 4 8 8 9 9 8 7 8 2 3 4 3 7 2 2 4 1 4 1 5 5 3 1 3 10 15 16 15 13 12 13 10 13 13 13 11 10 10 9 9 9 7 8 7 5 5 5 5 5 4 5 5 5 5 5 6 6 4 5 5 4 4 4 5 5 7 6 7 6 6 8 8 7 7 8 9 9 9 9 8 8 8 7
3 2 2 6 8 8 3 3 4 4 3 6 2 5 3 3 5 5 4 4 8 4 4 1 11 14 11 14 16 17 17 17 14 12 13 11 12 12 12 10 10 9 9 9 7 6 5 6 6 5 4 4 4 4 5 6 6 6 7 8 7 6 5 5 5 5 6 5 5 6 6 6 6 6 5 6 6 6 7 8 8 9 9 9 9 9
3 5 2 6 6 8 6 3 3 6 2 2 1 2 5 4 5 5 4 7 6 11 2 2 16 19 15 15 16 18 16 16 15 14 13 13 14 12 11 11 11 9 7 7 7 7 6 5 5 5 5 5 4 4 5 5 6 6 7 8 8 7 7 6 7 7 7 6 6 6 6 5 5 5 6 5 4 4 5 5 7 8 7 7 8 8
6 4 2 3 3 6 3 6 9 10 5 3 6 5 2 5 7 5 5 4 10 8 9 14 15 18 17 17 18 17 17 17 16 16 14 14 14 12 12 12 11 9 8 8 6 5 5 5 6 5 4 4 4 5 6 6 6 6 6 7 6 6 6 6 7 7 6 6 7 8 7 6 5 4 5 5 5 5 5 4 5 5 6 6 7 7
6 1 2 5 5 7 4 8 9 13 3 9 10 9 4 1 3 6 4 3 1 1 12 21 13 10 12 11 11 12 12 15 14 12 13 14 15 15 13 12 11 10 9 8 6 4 4 4 5 4 4 4 5 5 6 6 6 6 7 6 6 7 6 8 8 8 8 8 8 7 8 8 7 6 5 5 6 6 6 5 4 5 5 6 7 7
6 3 3 4 4 4 6 5 11 11 10 8 7 9 10 5 10 7 8 9 17 13 15 17 16 12 4 11 11 11 11 12 13 14 15 15 15 15 14 12 11 10 8 7 5 4 5 6 7 7 5 4 4 5 6 5 5 5 6 6 7 7 6 7 8 8 9 10 9 8 7 7 7 7 8 7 7 7 6 6 5 4 5 6 7 7
5 2 3 3 6 2 3 5 9 13 13 10 6 10 11 8 7 1 6 2 8 12 15 15 13 7 8 13 12 12 13 15 16 15 14 12 13 14 14 13 12 10 9 7 6 6 6 6 8 6 5 4 5 5 6 6 5 5 6 6 6 6 6 7 8 9 9 8 8 8 8 7 7 8 8 8 8 8 8 7 6 5 5 6 7 7
5 5 3 5 8 0 2 1 3 6 7 4 3 4 4 3 0 4 3 3 11 24 15 12 13 12 18 17 17 15 15 15 15 15 14 13 13 14 14 14 12 10 9 8 7 6 6 7 6 6 5 4 5 6 5 6 6 6 6 7 6 6 7 7 7 7 7 7 7 7 7 7 8 8 8 8 8 8 9 9 7 6 6 8 7 6
3 9 3 1 6 3 3 3 1 5 1 3 2 2 2 2 4 4 6 8 5 3 3 3 15 15 16 17 20 19 19 17 14 10 13 17 15 13 12 12 11 10 9 7 7 7 6 6 5 5 5 5 4 5 5 5 6 5 6 8 7 8 6 6 5 6 6 6 6 6 6 7 8 9 8 8 8 8 9 9 9 7 5 4 6 6
6 8 3 2 7 3 1 2 7 2 4 1 4 3 3 6 6 9 10 8 6 4 11 17 17 18 16 12 15 14 11 10 9 14 11 9 13 14 15 14 13 11 10 9 7 7 6 6 6 5 5 5 5 5 6 5 5 5 6 8 8 6 6 5 5 5 5 6 6 6 6 7 8 8 8 8 8 8 9 8 7 8 6 5 5 5
7 9 4 5 2 2 3 2 4 2 2 2 3 3 6 7 2 10 8 7 6 0 12 13 15 15 15 14 12 12 13 12 11 8 11 11 11 14 14 12 12 12 10 8 8 7 7 7 8 7 6 4 6 5 6 5 5 7 5 6 7 6 5 5 5 4 4 5 5 5 5 6 6 6 6 7 7 8 8 7 7 7 5 5 6 5
11 5 7 4 2 5 2 4 3 1 1 2 1 2 4 4 4 2 8 3 3 2 10 16 14 14 14 13 14 14 14 14 12 7 6 11 12 12 13 12 12 11 10 7 8 8 7 7 7 6 5 6 6 6 5 5 6 6 6 6 6 6 5 5 5 5 5 5 5 5 5 5 5 5 5 5 6 6 6 6 6 6 5 6 6 7
3 8 3 8 1 5 7 5 3 1 4 7 7 3 3 1 6 4 6 2 3 3 3 17 17 16 15 14 15 16 16 16 11 7 5 11 13 13 12 12 12 10 8 7 5 5 5 5 5 6 8 8 6 5 4 5 6 7 6 5 5 6 5 5 4 4 5 5 5 5 5 5 5 5 5 5 5 5 5 5 5 6 5 6 7 8
11 9 6 9 5 4 3 6 4 6 5 6 12 6 3 5 9 4 4 3 4 5 6 12 17 17 19 19 17 16 14 13 11 9 8 12 13 14 14 12 12 10 8 7 8 8 7 6 7 7 7 8 7 5 5 5 7 7 5 4 4 5 5 5 4 4 5 5 5 5 5 4 5 5 5 5 4 4 4 4 5 4 5 6 6 6
10 5 5 7 4 1 5 4 3 2 1 3 8 6 7 6 3 2 3 7 11 12 10 11 15 17 14 17 19 17 19 16 15 12 11 14 14 13 14 13 12 10 8 6 6 7 8 8 8 8 8 7 5 5 5 5 6 6 5 4 4 5 5 5 5 4 4 5 6 5 5 4 5 4 5 5 5 4 4 3 3 5 5 5 6 6
4 3 5 7 5 4 6 0 1 3 3 2 7 5 6 5 4 3 9 3 12 15 16 15 14 14 15 15 13 14 2 4 10 13 13 15 15 13 12 11 10 8 8 7 7 7 8 8 9 8 7 6 6 5 5 5 6 5 5 5 5 5 4 4 4 4 4 5 6 5 4 4 5 5 4 4 5 4 4 4 4 4 5 5 6 6
2 2 1 4 5 5 1 6 3 3 5 4 3 8 6 5 5 9 4 4 17 15 14 16 16 13 12 11 5 4 10 17 14 13 14 15 15 14 13 11 9 8 6 6 8 8 8 8 7 7 6 6 7 6 5 5 6 5 5 6 5 4 4 5 4 4 4 5 5 5 4 4 4 4 5 4 5 6 6 5 5 4 4 6 5 6
6 4 2 3 2 3 2 3 2 1 3 9 9 4 2 4 4 4 5 5 12 16 16 13 14 12 12 9 9 12 17 17 15 14 13 14 15 13 12 10 9 8 8 8 9 8 10 8 8 8 6 6 6 5 4 6 6 5 5 6 5 5 6 5 4 4 4 5 5 5 4 4 4 4 4 5 5 6 5 4 5 4 4 4 5 5
2 5 1 1 2 5 3 4 4 5 4 6 10 8 6 3 5 8 11 10 7 11 11 12 11 12 10 12 14 16 17 16 13 13 14 13 12 10 9 8 8 8 9 9 10 10 10 8 7 7 5 5 5 4 4 6 5 5 5 4 2 5 5 5 5 5 4 3 4 4 4 4 4 4 4 5 5 5 5 4 4 4 5 5 5 6
3 2 5 6 2 2 3 3 3 2 0 1 3 2 2 3 9 9 12 16 15 9 9 11 13 12 12 14 15 16 15 13 13 13 14 13 13 11 11 10 10 10 9 10 11 10 10 10 9 7 5 4 4 4 4 5 6 4 3 1 1 5 5 5 5 6 6 4 3 4 3 4 4 4 4 4 5 5 4 4 3 5 4 5 6 6
1 2 2 7 1 2 2 0 1 3 4 6 5 5 10 7 4 8 12 11 6 10 10 12 12 12 12 14 16 13 13 13 14 12 12 12 12 11 10 11 9 8 8 9 9 10 9 8 8 8 6 4 4 4 5 5 7 6 3 2 3 3 4 5 6 6 5 4 3 2 3 5 4 4 4 4 4 4 3 3 3 5 5 6 6 5
1 1 1 5 4 3 1 2 4 3 3 7 9 6 5 4 6 7 9 10 11 10 10 10 11 11 12 14 15 14 13 14 13 13 13 13 12 12 12 11 8 9 10 11 10 9 9 8 8 7 6 5 2 4 5 6 5 5 5 6 5 5 5 5 5 5 5 5 4 2 1 5 4 4 4 4 4 4 4 3 3 3 4 4 5 5
1 2 8 3 4 2 4 2 2 4 4 4 8 9 8 8 7 5 8 9 10 9 10 11 12 11 12 12 14 15 13 12 15 14 13 12 11 11 10 9 9 10 9 10 9 10 8 8 8 7 6 5 4 4 5 5 5 5 6 5 5 5 6 5 5 6 5 4 4 3 1 1 5 5 5 3 4 5 4 3 2 4 3 3 4 6
3 3 3 3 5 3 5 3 5 6 6 4 4 4 7 9 11 10 11 12 12 12 11 9 8 10 11 12 13 15 15 12 13 15 14 11 10 9 9 9 10 9 8 9 8 10 9 7 7 7 6 5 5 5 4 4 3 4 5 4 4 6 6 5 5 5 5 5 6 4 2 0 2 5 6 4 4 2 2 4 4 3 0 1 1 1
6 3 4 10 9 7 8 11 13 10 4 4 4 8 8 8 11 13 12 12 12 13 12 12 10 9 10 12 12 13 16 13 12 12 12 9 9 9 10 10 9 9 9 9 9 9 8 7 7 6 5 4 5 5 5 5 4 3 4 4 4 6 6 5 6 6 5 4 4 3 3 2 1 3 5 4 4 3 2 3 1 2 2 1 2 3
5 6 6 8 9 9 5 7 1 5 8 6 8 6 9 9 12 13 13 12 11 10 11 13 12 11 12 11 11 13 13 14 14 11 10 8 8 10 11 12 11 10 10 9 10 9 9 7 6 6 5 4 5 5 5 5 5 4 4 4 4 6 5 5 6 5 4 4 4 3 2 2 2 1 3 4 4 4 4 1 1 3 2 3 4 5
Wind_Direction
130 183 204 209 211 198 202 184 192 218 190 228 243 212 199 197 261 255 240 243 153 74 78 110 99 105 90 96 97 107 110 108 116 114 108 105 106 104 102 97 96 82 79 79 74 66 68 65 71 71 67 69 60 48 55 59 50 47 52 56 46 52 92 140 206 228 152 137 84 334 309 297 283 269 291 257 231 236 249 255 257 272 272 256 257 255
153 197 226 213 202 192 206 189 196 242 242 229 277 281 285 217 219 224 216 231 185 106 216 99 87 74 99 105 107 110 106 99 108 105 103 103 102 103 103 103 93 99 92 85 74 68 62 59 70 70 58 55 54 29 48 51 49 50 47 49 46 40 43 42 49 50 102 157 148 161 280 303 301 287 290 291 251 243 269 270 261 279 296 288 274 279
197 212 214 206 208 187 206 202 201 208 239 241 210 259 274 261 237 305 265 198 95 102 185 108 94 94 88 93 82 72 78 96 90 95 103 104 102 103 102 100 102 99 92 81 82 74 64 64 67 74 63 55 55 37 52 36 50 46 45 44 47 44 40 31 25 31 20 346 50 153 184 262 294 296 287 288 289 115 202 268 305 309 298 305 314 311
191 235 211 205 181 175 219 227 219 235 236 216 242 226 232 169 119 293 282 130 137 131 157 113 104 99 88 71 70 51 67 79 71 75 79 79 91 97 97 100 108 102 90 83 81 78 59 67 57 71 64 56 59 42 48 37 45 47 46 46 46 45 41 34 23 25 10 15 53 54 138 170 257 290 311 322 321 336 335 306 229 244 253 315 316 294
193 169 187 191 188 174 204 228 225 210 248 226 207 222 224 164 202 161 276 72 72 75 116 89 82 57 68 105 89 91 86 86 87 81 75 73 76 80 84 83 89 93 96 98 86 86 71 66 52 65 72 64 52 46 44 38 42 43 43 47 47 44 40 33 28 25 8 21 36 25 48 103 150 346 338 332 325 325 305 304 310 306 353 36 298 272
222 234 162 176 194 193 198 229 229 172 229 261 226 217 212 179 192 201 142 105 80 130 172 121 61 324 260 125 125 132 104 100 106 103 103 106 99 93 93 89 85 84 87 98 95 94 85 81 73 63 68 63 50 48 36 38 47 36 42 43 38 44 36 30 29 24 35 33 42 45 38 32 38 58 359 344 324 317 308 295 318 317 329 342 327 315
191 207 172 190 190 205 210 221 230 155 217 210 256 204 208 203 193 220 187 122 147 162 228 217 138 201 189 179 157 144 121 119 116 112 120 117 110 105 106 108 104 103 100 92 94 92 90 86 82 70 67 70 67 49 27 33 49 30 44 45 31 36 32 30 31 32 45 43 40 50 59 49 42 31 17 30 34 283 293 298 302 302 318 327 322 313
168 198 189 195 197 204 210 223 226 170 173 237 229 174 173 179 212 230 212 172 182 167 182 229 141 138 191 196 171 159 131 139 129 129 128 125 122 122 118 115 107 104 109 106 98 99 100 91 79 71 57 60 54 38 30 36 38 42 37 49 57 59 53 40 37 42 46 54 46 49 52 47 36 25 16 355 24 45 329 303 297 307 311 305 296 297
169 193 193 196 201 207 214 217 221 169 192 230 208 164 163 172 206 226 201 156 214 140 205 112 123 77 169 158 165 160 142 161 158 149 148 137 132 128 123 120 115 113 113 115 115 108 99 92 86 77 65 50 45 40 52 50 48 45 36 32 36 37 34 33 43 51 47 54 55 56 58 55 37 24 17 1 16 24 39 78 324 310 300 310 306 282
195 201 196 195 189 212 215 218 212 177 199 249 217 180 144 158 221 223 200 142 163 174 187 183 181 114 158 169 169 173 168 174 173 173 164 149 143 136 129 126 118 112 108 105 105 105 102 102 97 91 82 69 45 26 25 32 33 31 28 32 31 24 29 23 43 52 50 50 52 54 47 45 33 27 20 30 29 26 26 34 32 29 353 304 302 313
197 206 193 188 200 203 207 222 206 198 217 207 188 228 222 29 292 335 85 122 113 212 202 183 197 132 167 194 181 177 202 176 164 163 158 142 134 134 132 132 127 117 109 103 100 97 98 98 105 104 99 91 62 43 37 39 39 48 51 47 45 26 24 26 31 40 40 35 41 50 49 42 32 21 22 25 26 18 21 23 20 13 5 360 355 344
246 215 203 203 182 206 195 218 222 204 216 212 234 193 151 318 319 295 358 97 143 228 256 206 199 170 178 206 208 219 102 168 165 162 159 151 144 139 132 131 123 119 114 102 97 103 104 106 105 103 89 72 51 38 40 39 32 30 30 47 47 27 27 25 22 37 38 39 34 35 31 40 39 32 29 25 17 9 14 14 13 6 14 11 1 357
241 230 215 211 190 189 192 204 232 219 217 207 215 103 149 239 151 273 113 203 194 187 218 176 173 36 317 203 237 197 141 152 167 156 149 143 142 136 130 122 116 115 113 104 103 105 107 104 100 84 74 63 55 51 53 52 51 46 45 45 52 30 33 41 44 57 51 45 40 36 36 39 41 44 41 30 27 14 17 8 13 14 13 5 2 355
256 292 222 220 199 193 180 188 199 215 225 191 203 146 129 155 181 227 255 195 341 270 293 170 210 219 307 339 349 141 148 139 130 130 132 137 139 135 127 116 113 110 110 111 111 107 95 92 85 86 82 78 77 64 61 45 44 49 41 36 48 34 34 49 51 49 50 47 46 46 42 37 38 41 40 33 32 21 18 16 21 25 15 12 5 354
195 231 238 188 228 178 187 192 176 179 173 211 135 152 172 148 161 199 187 164 185 195 51 353 157 258 120 276 23 123 123 121 122 125 123 117 116 113 111 109 107 110 113 119 111 108 102 97 98 91 88 93 93 70 54 49 53 58 53 45 44 38 28 47 51 55 55 50 46 45 44 36 35 36 31 24 19 19 21 15 19 22 22 19 9 5
211 221 250 191 210 182 184 187 172 139 163 218 165 93 124 203 137 149 203 148 204 111 56 6 100 337 66 52 85 100 110 109 115 108 101 105 109 107 103 106 111 111 112 109 116 118 121 124 115 105 112 114 74 73 74 71 74 72 59 59 54 55 55 56 60 59 60 53 48 43 41 41 45 45 40 30 19 14 14 23 23 22 21 17 11 7
139 222 272 195 205 214 179 158 195 153 190 240 125 201 208 154 114 103 82 139 99 72 10 189 109 84 103 46 104 111 109 113 103 98 100 106 107 102 106 113 119 127 122 115 112 120 119 108 101 103 97 67 61 65 65 57 49 47 31 35 42 51 58 61 59 57 52 49 47 38 42 43 46 46 43 36 26 16 15 24 29 23 15 13 13 9
151 236 277 162 204 243 205 164 171 181 143 126 196 244 190 128 116 137 195 264 23 151 193 176 163 160 158 167 167 129 125 128 120 121 118 116 115 111 119 123 131 125 116 105 99 104 116 104 86 73 75 85 87 85 74 65 59 56 52 49 58 59 68 65 64 55 48 48 47 45 43 42 42 42 40 35 29 20 23 33 31 23 19 16 12 11
122 191 236 217 183 208 151 137 166 230 137 159 192 205 160 232 220 312 102 192 119 63 172 285 170 190 187 147 159 157 153 153 144 137 129 128 124 123 127 125 122 117 112 110 95 88 87 86 89 93 93 88 79 73 76 69 60 54 46 52 62 69 71 72 65 59 51 51 55 52 50 46 43 44 46 40 33 28 31 39 35 26 23 17 12 11
81 160 283 271 184 193 158 140 209 185 341 101 128 75 142 105 145 131 194 169 118 177 140 217 178 239 199 173 169 169 162 151 148 144 136 133 130 130 130 130 125 126 120 100 90 90 91 88 89 90 89 82 76 71 62 62 56 50 47 52 60 67 69 66 62 60 60 56 59 56 51 45 48 53 56 47 41 36 37 43 39 28 25 21 15 15
268 130 199 274 238 135 215 201 201 168 174 168 130 264 131 20 220 115 90 135 156 157 184 141 205 244 233 162 176 169 162 159 152 141 136 134 132 130 127 124 130 120 110 103 106 101 90 87 87 84 84 81 71 68 65 58 59 50 53 55 57 70 68 71 69 66 63 60 55 56 50 46 47 55 59 57 48 45 46 51 44 37 31 25 24 17
187 187 194 293 121 199 225 229 162 184 169 161 163 195 167 109 121 167 252 4 105 115 165 151 222 265 266 212 173 155 152 145 141 133 131 133 129 125 128 132 124 104 99 112 111 103 93 85 84 84 77 69 66 60 59 51 51 48 50 55 66 66 69 80 72 71 63 56 53 49 44 38 38 48 58 62 48 46 47 53 49 40 35 35 28 26
160 161 117 218 201 201 206 195 185 175 149 163 159 221 159 148 115 115 176 265 46 81 108 146 124 238 90 272 138 136 140 138 136 131 129 130 127 129 126 114 104 104 102 99 96 89 83 76 77 84 82 77 73 63 58 49 52 51 50 56 63 72 68 79 81 71 66 63 61 60 54 50 43 38 40 43 41 42 39 44 51 42 40 37 33 31
106 106 169 261 301 298 296 224 178 161 130 103 198 118 116 160 176 171 165 186 127 159 109 31 125 232 336 92 125 125 126 127 131 132 130 129 130 126 118 111 106 99 98 95 87 87 81 81 76 72 71 69 62 64 59 55 52 49 52 60 68 71 72 73 77 77 75 73 70 67 64 58 51 47 43 40 33 33 30 29 39 45 45 41 35 35
187 266 136 145 97 2 23 348 267 287 162 150 171 229 156 143 127 178 94 126 117 210 173 138 204 197 321 139 126 130 131 135 139 142 137 133 130 122 113 109 107 105 99 92 89 91 85 79 76 79 83 81 78 68 64 58 56 55 52 55 65 70 73 80 81 83 76 76 75 70 70 67 62 59 51 46 39 37 34 30 27 27 36 39 38 33
174 197 119 156 170 169 183 193 208 209 200 213 140 138 161 170 154 100 217 261 160 263 130 118 106 24 87 132 132 135 138 136 146 146 142 138 134 123 121 118 112 109 105 102 101 90 91 98 92 87 86 84 77 76 66 64 61 58 55 50 54 60 60 61 69 73 74 72 75 72 69 67 61 58 56 52 45 41 39 38 33 29 28 27 31 31
171 163 130 154 156 180 199 205 231 137 140 182 191 141 183 113 116 114 111 134 188 192 121 248 147 135 141 148 148 152 148 147 147 146 141 131 122 121 123 123 120 117 113 112 111 109 96 82 89 99 96 92 87 78 74 73 66 61 60 55 57 61 60 54 55 55 63 64 70 70 66 61 58 53 51 47 44 42 45 43 38 34 34 32 32 29
77 190 232 131 148 172 177 155 93 99 88 356 52 210 177 154 146 143 163 228 173 114 271 49 146 137 167 161 157 154 150 146 147 146 143 134 133 135 129 123 116 111 112 110 105 104 105 103 100 107 104 90 78 72 69 65 71 73 70 70 65 63 62 58 60 58 60 64 64 63 59 56 53 50 45 42 35 36 41 46 46 43 36 34 33 31
144 156 226 103 53 109 156 125 100 73 68 96 59 29 314 205 137 159 205 197 154 160 186 160 166 152 168 171 163 157 153 149 148 146 141 138 130 126 125 124 124 124 122 116 113 115 114 107 119 110 90 88 82 80 72 69 68 74 73 74 75 69 65 63 62 60 58 57 56 50 48 43 42 39 38 35 34 32 31 38 46 48 45 37 36 32
115 173 161 114 100 41 27 99 93 101 107 56 31 9 352 50 212 149 85 58 56 248 147 151 153 142 150 151 153 146 141 137 137 135 133 133 138 134 132 131 132 132 128 125 124 122 118 121 119 117 107 92 92 84 79 75 78 82 86 79 74 72 63 65 60 59 56 54 53 51 47 45 42 38 30 26 25 23 23 26 31 38 37 37 35 33
123 248 167 118 77 43 11 53 84 99 101 77 30 24 15 33 73 88 112 101 89 77 119 126 128 130 133 134 134 137 136 134 134 142 144 143 140 138 136 137 136 133 127 119 119 117 112 116 116 111 111 112 99 91 89 93 91 88 82 80 77 74 69 70 66 61 60 62 61 59 51 47 44 41 41 37 29 22 20 19 19 26 30 31 32 32
101 205 55 75 79 353 341 60 97 94 85 81 42 14 4 351 95 120 113 213 127 139 127 121 122 140 151 142 135 142 147 148 148 146 145 144 141 138 138 138 137 132 125 124 121 114 116 116 115 121 124 118 107 96 95 93 92 87 84 80 82 80 73 69 68 68 67 69 67 63 57 50 47 44 40 37 33 31 29 28 24 22 25 29 29 25
136 120 85 100 85 265 267 287 119 79 61 31 345 340 328 340 302 97 44 63 153 137 129 148 190 162 152 151 145 152 151 152 151 153 144 140 141 140 140 139 137 127 123 127 124 122 123 124 128 129 123 116 107 104 106 105 96 94 93 88 90 84 74 70 71 73 72 69 70 67 61 54 49 46 43 38 36 34 35 35 31 25 24 31 26 20
96 120 112 111 112 223 283 302 30 64 142 214 265 256 188 219 284 112 92 107 96 41 185 176 141 138 146 154 154 157 157 159 155 149 150 148 145 139 136 133 126 124 123 122 128 129 128 121 117 118 123 121 115 107 109 103 106 103 96 95 91 87 83 84 75 80 80 75 73 71 64 56 53 49 44 41 39 38 36 35 33 27 17 22 25 22
94 87 85 88 98 187 314 27 54 186 228 282 335 350 114 91 94 105 76 39 359 89 110 118 134 144 151 146 141 135 126 118 127 135 138 138 137 139 139 134 129 127 128 130 131 133 129 125 119 112 104 108 112 106 95 84 88 84 78 88 92 92 94 89 88 77 75 74 73 72 65 61 57 55 50 46 44 43 42 37 32 27 19 17 11 15
124 107 137 51 83 54 43 31 154 236 283 331 18 76 104 102 186 86 48 6 8 137 131 131 137 134 133 131 124 120 117 111 102 107 128 134 135 137 134 133 130 128 131 140 138 141 135 129 125 121 122 120 99 92 93 96 89 83 81 82 96 101 103 103 91 81 74 75 79 78 76 73 67 61 57 53 49 49 43 39 32 27 11 12 5 360
120 97 102 85 15 124 122 53 58 113 74 54 76 251 186 149 199 256 147 266 341 314 144 136 135 132 127 125 123 119 116 107 103 103 122 126 126 125 126 127 128 127 133 144 141 144 143 137 126 123 111 102 101 97 98 96 87 88 84 87 105 113 117 104 94 87 83 90 95 95 89 85 80 70 63 56 56 48 40 35 20 15 6 12 6 4
357 123 216 108 324 119 132 97 83 75 232 217 233 252 221 165 136 151 98 336 315 317 175 142 143 141 132 130 131 130 123 114 128 151 152 132 129 126 125 125 124 128 137 142 133 129 128 123 112 105 103 102 101 114 109 88 83 84 84 87 100 110 108 101 105 108 100 96 97 102 100 92 84 78 67 62 58 48 38 29 22 21 8 17 3 4
41 62 91 106 143 82 75 127 179 170 239 185 203 210 166 150 142 151 69 231 223 184 182 155 146 150 148 145 142 138 135 146 163 162 168 140 133 131 130 130 130 135 140 141 138 133 129 126 121 114 102 103 105 108 102 94 86 83 83 86 87 88 100 122 134 126 113 107 105 107 111 99 85 78 70 64 53 49 39 29 33 13 15 16 11 6
48 7 47 62 93 138 138 109 191 198 207 239 186 186 171 153 118 75 179 242 178 173 167 163 158 155 158 155 151 153 155 162 177 172 159 141 136 134 134 136 136 140 142 141 132 127 122 117 104 98 101 108 123 118 98 91 87 90 92 90 90 89 113 138 153 158 130 100 94 109 110 106 94 80 75 65 51 42 34 20 26 17 19 13 12 4
19 11 43 145 142 128 108 1 6 311 279 207 182 179 135 145 100 150 195 246 164 163 168 163 166 162 158 158 166 159 186 69 121 134 141 134 131 134 134 135 137 140 139 136 135 128 119 115 113 118 123 129 126 110 104 91 87 83 86 84 79 92 115 148 150 133 116 99 96 102 111 110 106 92 73 70 68 56 43 37 39 22 19 15 5 10
0 83 339 67 98 132 158 115 211 234 235 172 182 152 162 136 190 209 238 162 150 164 166 159 160 162 160 157 122 88 118 116 127 133 139 139 137 140 140 140 139 134 128 128 130 121 116 114 112 109 106 113 114 117 110 102 96 101 94 85 90 117 135 124 129 122 103 99 104 106 113 121 112 98 89 72 64 58 46 32 42 33 21 10 10 17
196 108 169 143 155 68 51 79 43 243 256 152 141 91 200 157 233 187 114 119 151 153 156 157 157 155 149 128 124 125 120 127 136 141 139 137 137 142 143 143 141 136 131 125 122 125 123 120 120 118 121 116 116 120 115 105 108 109 107 104 122 110 92 100 109 124 128 118 105 108 115 124 125 115 98 80 70 70 54 34 39 28 18 18 12 20
194 93 80 314 189 146 141 153 195 215 203 169 159 178 190 199 152 134 126 122 139 148 149 147 149 148 138 131 134 133 132 133 139 140 137 135 132 131 134 137 138 133 136 133 131 132 124 124 125 124 122 118 120 122 123 116 130 132 117 126 136 91 85 86 98 95 79 80 115 113 118 119 112 107 102 95 82 71 65 41 36 36 22 15 20 22
248 153 188 155 215 138 195 216 268 304 270 51 108 141 100 133 139 150 142 149 150 160 149 146 150 141 138 136 134 136 136 139 140 144 138 139 138 142 147 150 145 139 135 134 133 129 126 131 133 129 126 131 128 123 117 119 115 105 100 249 140 107 106 97 80 75 86 97 117 129 123 94 91 96 101 99 93 86 72 49 38 47 12 22 23 27
25 126 114 86 139 163 79 30 257 30 68 65 47 103 126 111 87 131 133 130 142 140 149 148 145 137 138 140 136 140 138 142 141 140 132 133 136 144 144 143 134 124 133 131 127 125 126 125 125 128 137 151 148 117 106 111 108 102 139 142 88 71 68 64 63 56 61 76 87 136 127 92 78 72 87 92 89 97 89 89 58 61 29 32 28 27
260 139 65 115 163 68 334 334 65 94 85 91 91 51 51 87 126 132 125 128 135 133 128 135 135 137 141 144 141 140 140 145 140 138 138 143 146 149 152 145 129 135 140 136 133 123 119 119 120 130 139 147 177 116 113 109 113 128 121 109 118 105 90 81 74 61 53 56 52 37 84 119 109 89 75 88 90 81 82 74 61 60 55 37 35 29
310 144 81 84 76 115 185 196 107 80 84 111 122 120 110 108 95 90 112 121 122 121 125 132 132 134 143 145 145 139 142 145 141 143 143 147 152 153 150 138 139 140 143 135 132 124 122 121 127 131 132 145 164 140 134 130 135 137 128 128 115 106 91 79 76 74 58 52 64 62 39 155 132 114 88 78 99 108 88 57 73 77 67 60 37 45
171 64 149 168 103 75 64 86 112 81 61 56 74 84 121 128 122 117 119 122 124 124 126 124 133 143 145 146 145 141 140 145 147 147 145 147 146 147 142 143 144 145 136 127 128 127 131 132 129 133 130 138 144 139 131 121 117 111 108 122 127 109 95 90 78 72 55 41 54 43 15 322 168 121 120 105 81 71 147 154 146 133 155 268 217 85
69 81 147 104 116 165 177 179 152 133 180 178 146 139 129 126 122 126 126 126 132 134 136 134 135 141 140 141 145 144 141 142 146 146 142 141 142 139 139 138 142 140 137 133 130 129 129 131 135 136 135 139 125 124 124 125 121 109 108 107 102 101 102 96 74 65 49 50 59 51 61 29 19 130 135 130 130 109 52 0 164 246 174 177 279 286
131 176 144 152 161 196 223 174 154 81 100 137 148 142 126 123 123 129 136 136 135 135 135 134 136 134 140 144 146 144 143 146 149 141 132 129 134 140 138 139 139 134 132 131 125 129 132 141 139 135 133 142 122 119 127 132 135 120 116 116 122 106 104 94 82 70 55 56 51 46 45 54 55 63 128 152 139 124 125 100 344 4 348 303 293 307